Wind_Speed
26 25 24 22 19 17 15 13 13 14 15 16 16 17 17 17 18 17 16 16 15 13 12 10 9 10 9 7 7 8 9 9 10 10 10 10 10 10 10 11 12 13 14 14 13 14 15 15 15 15 15 15 14 13 12 11 11 11 10 10 10 10 9 9 9 9 9 10 10 10 10 10 10 9 9 8 8 8 8 8 8 8 8 8 8
25 25 24 21 19 17 15 15 15 16 16 16 17 17 17 18 18 17 15 16 15 13 12 11 9 10 9 8 8 8 8 9 10 10 10 10 10 10 10 11 12 13 13 13 13 13 14 15 15 14 14 13 12 10 10 9 9 9 9 9 9 9 9 9 9 9 9 9 9 9 9 9 8 8 8 7 7 8 7 7 7 7 7 8 8
24 23 22 20 20 18 17 17 17 17 17 16 16 17 18 18 18 17 15 16 15 13 13 12 10 10 9 9 9 9 8 9 10 10 10 9 10 10 10 12 13 13 13 12 13 13 13 14 15 14 13 12 10 8 7 7 7 8 8 8 7 7 8 8 8 8 8 8 8 8 8 8 8 7 7 7 7 7 7 7 8 8 8 8 8
23 21 20 19 19 19 19 18 18 18 18 17 17 18 19 19 18 17 16 16 16 14 14 13 11 10 10 10 10 9 9 9 10 10 10 10 10 10 11 12 13 13 12 12 12 12 13 14 14 13 12 11 9 7 6 6 6 6 6 6 6 6 7 7 7 7 7 7 7 7 7 7 7 7 7 7 7 7 8 8 8 8 8 8 8
22 20 19 19 20 20 20 19 19 20 20 19 19 19 19 19 19 18 16 17 16 15 15 14 11 10 10 11 11 10 10 10 11 10 10 11 11 11 11 12 13 12 12 12 11 11 12 13 13 12 11 10 9 7 6 5 5 5 5 5 5 5 6 6 7 7 7 7 7 7 6 6 6 6 6 7 7 8 8 8 7 7 7 7 8
23 21 20 20 20 21 21 20 20 21 22 22 21 20 20 20 19 18 17 17 17 16 16 14 12 11 11 11 11 11 11 11 11 10 11 11 11 11 11 12 13 12 12 12 11 11 12 13 13 12 10 9 8 7 6 4 4 4 4 4 4 4 5 5 6 6 6 6 6 6 6 6 6 6 6 6 7 7 6 5 5 5 6 6 7
24 22 21 21 21 21 21 21 21 22 23 23 22 21 20 20 19 18 18 18 18 17 16 15 13 12 12 11 11 11 11 11 11 10 11 12 12 12 11 12 13 13 12 12 11 11 12 13 13 12 10 9 7 7 5 4 3 3 3 3 3 3 4 4 5 5 5 5 5 5 5 5 5 5 5 5 4 4 4 4 4 4 5 6 6
26 24 23 23 22 21 21 21 21 22 22 23 22 21 20 20 19 18 18 18 18 17 16 16 14 13 12 12 11 12 12 12 11 11 12 12 12 12 11 12 13 12 12 11 11 11 13 13 13 12 10 8 6 5 5 4 3 2 2 2 2 2 3 3 4 4 5 5 5 5 5 5 4 4 3 2 2 2 3 3 3 4 4 5 6
27 26 25 24 23 21 21 22 22 22 22 22 21 20 20 20 20 19 19 19 18 17 17 16 15 14 14 13 13 13 13 13 12 12 12 13 12 12 11 11 12 12 11 11 11 12 14 13 13 12 9 7 5 4 4 3 2 2 2 2 2 2 3 3 4 4 4 4 4 4 4 3 3 2 1 1 1 2 3 3 3 4 4 5 6
25 26 26 25 23 21 21 22 22 22 22 21 21 20 20 21 21 20 19 20 19 17 16 16 16 16 16 15 14 14 14 13 12 12 12 13 12 12 11 11 11 12 11 11 12 13 14 13 13 11 8 6 4 3 3 2 2 2 2 2 3 3 3 3 3 4 4 4 3 3 3 2 2 1 1 1 2 2 3 3 4 4 5 5 6
24 24 26 25 23 21 21 21 22 22 22 21 21 21 20 21 21 20 19 20 20 18 17 16 16 16 17 16 15 15 13 12 12 12 12 13 13 12 11 11 11 11 11 11 12 13 13 13 12 8 7 7 4 2 2 2 2 2 2 2 3 3 3 3 3 4 3 3 2 2 2 2 2 1 1 2 2 3 3 4 4 5 5 6 6
24 24 26 25 22 22 22 21 22 22 22 22 22 21 20 20 20 19 18 19 21 20 19 17 16 15 15 16 16 15 13 12 12 12 12 13 13 12 12 11 11 11 11 11 12 12 11 11 11 8 6 6 4 1 1 1 2 2 2 3 3 3 3 3 3 3 3 2 2 2 2 2 2 2 2 2 3 3 4 4 5 5 5 5 5
25 26 27 26 23 23 23 22 22 22 22 22 22 21 19 19 19 18 17 19 21 20 19 18 17 16 14 15 15 15 14 13 12 12 12 13 13 12 12 12 11 11 11 11 11 11 9 9 10 9 7 5 3 2 2 2 2 2 3 3 2 2 2 2 3 3 3 3 2 2 3 3 3 3 3 3 3 3 3 4 4 4 5 5 5
27 26 26 26 24 24 23 23 23 22 22 22 22 20 19 19 19 18 18 19 19 19 18 18 18 15 14 14 15 15 15 14 13 12 12 13 13 12 13 12 12 11 10 10 10 10 8 8 8 9 8 5 3 2 3 4 4 3 3 3 2 3 2 2 3 3 3 3 3 3 3 4 4 4 4 4 4 3 3 3 3 3 4 4 4
28 26 25 24 23 24 24 24 24 23 24 23 22 21 20 19 19 19 19 19 18 18 17 17 16 14 14 15 16 16 16 14 13 12 13 13 13 13 13 13 13 12 11 10 10 9 9 9 9 8 8 6 4 4 5 5 5 5 4 3 3 3 3 3 4 4 3 3 3 4 4 4 4 4 5 5 4 3 3 3 2 2 3 3 3
28 27 25 24 23 24 24 24 24 24 24 24 23 22 22 21 20 21 21 20 19 17 17 16 15 14 15 16 16 16 15 14 13 12 13 13 13 13 12 12 13 13 11 10 10 10 10 10 10 9 8 7 7 6 6 7 7 6 5 5 4 4 5 5 5 5 5 4 4 4 5 5 5 5 5 5 5 4 3 3 2 1 1 2 2
29 28 26 24 23 24 24 23 23 23 24 25 23 22 22 22 22 23 22 21 19 18 18 18 16 16 16 15 17 17 15 15 14 13 14 13 13 14 12 12 14 14 12 10 10 10 11 11 11 11 10 9 8 8 8 7 7 7 7 6 5 5 6 6 6 6 6 5 5 5 5 6 5 5 6 6 5 5 4 3 2 1 1 2 2
30 29 27 24 23 22 23 23 23 23 25 24 23 22 22 22 24 25 24 22 20 19 20 19 18 18 18 17 18 18 16 16 15 14 14 14 13 14 13 14 15 15 13 11 10 11 11 11 11 11 11 10 10 9 9 8 8 8 8 8 7 6 7 7 7 7 7 6 7 7 6 6 6 6 7 7 6 5 4 3 2 2 2 2 3
29 29 27 24 23 23 23 24 24 25 25 24 22 21 20 20 21 21 22 22 21 20 20 19 18 19 19 18 19 18 17 16 14 14 15 14 14 14 14 15 16 15 13 12 11 12 12 11 11 11 11 11 11 10 10 10 10 10 9 9 8 8 8 8 8 8 8 8 8 8 7 6 6 7 8 7 6 5 4 3 3 3 3 4 5
29 28 26 25 24 24 24 24 24 25 24 23 21 19 17 18 18 19 21 23 22 20 19 19 19 19 18 18 19 18 18 16 14 15 15 15 15 15 15 16 16 15 14 12 12 12 12 12 12 12 12 12 12 12 11 11 11 11 10 10 9 9 9 9 9 9 9 9 9 9 8 8 8 9 8 8 7 6 4 4 4 4 5 6 7
29 28 25 25 24 23 23 23 24 25 24 24 23 21 20 20 22 23 23 23 22 20 20 20 19 19 19 19 19 18 17 15 15 16 16 16 16 16 16 16 16 15 14 13 13 13 12 12 12 12 12 13 13 13 13 12 12 11 11 11 10 10 10 9 9 10 10 10 10 10 10 9 9 10 9 8 7 6 5 4 5 6 7 8 9
29 27 25 24 23 23 23 23 23 24 24 25 24 23 23 24 24 24 24 23 21 21 21 20 19 19 20 19 19 18 17 15 16 17 17 17 17 16 16 16 16 15 14 14 13 13 13 13 12 12 13 13 14 14 14 13 12 12 12 11 11 11 11 11 10 10 11 11 11 11 11 11 11 10 10 9 8 7 6 6 7 8 10 10 11
27 26 25 24 23 23 23 22 23 24 25 25 25 25 25 25 24 25 27 27 24 22 22 21 20 20 20 20 19 18 17 16 18 18 18 18 18 17 16 16 16 16 15 14 14 14 14 14 13 13 13 14 14 14 14 14 13 13 12 12 12 12 12 12 11 11 11 11 11 12 12 12 12 11 10 9 9 8 7 7 9 10 11 12 12
26 25 25 24 23 23 23 23 23 24 25 26 25 25 25 23 23 25 27 27 25 24 23 22 21 21 21 20 19 18 17 18 19 19 19 19 18 17 17 16 16 16 15 14 15 15 15 15 14 13 14 14 15 15 14 14 13 13 13 13 13 13 13 12 12 12 12 12 12 13 13 13 13 12 11 11 10 9 9 10 11 12 12 13 13
26 25 24 24 24 23 23 23 23 23 24 25 25 25 24 23 23 24 25 26 25 24 23 22 22 22 22 21 21 19 19 20 21 20 19 19 18 18 17 16 16 16 15 15 15 15 15 15 15 14 14 14 15 15 15 14 14 14 14 14 14 14 14 13 13 13 13 13 13 14 14 14 13 13 12 12 12 11 11 12 13 14 14 14 15
25 25 24 25 26 25 23 24 24 23 24 25 25 25 24 23 23 24 24 24 24 24 23 23 23 23 23 23 21 20 20 22 22 21 20 19 19 18 17 16 16 16 15 15 15 15 16 16 15 15 14 14 15 16 15 15 15 15 15 14 14 14 14 14 14 13 13 14 14 14 14 14 14 13 13 13 13 13 13 14 15 15 16 16 16
23 25 26 26 27 26 26 26 26 25 26 26 26 25 24 23 23 24 24 24 24 24 23 23 24 23 23 23 21 21 22 23 23 22 21 20 19 18 17 17 17 17 16 16 16 16 16 17 16 15 14 14 15 16 16 16 15 15 15 15 15 15 15 15 14 14 14 15 15 15 15 15 14 13 13 13 14 14 15 16 17 17 18 18 18
25 25 25 26 27 27 27 27 26 26 26 26 26 24 23 23 23 23 24 24 24 23 23 23 23 24 23 22 21 22 23 23 23 23 22 21 20 18 17 17 18 18 18 17 17 17 17 17 17 16 15 14 15 16 16 16 16 16 16 16 16 16 16 16 15 15 15 16 16 16 16 15 14 14 14 14 15 16 17 18 18 19 20 20 20
28 26 24 25 28 28 27 27 28 27 27 26 25 23 22 23 24 24 24 24 23 23 23 23 23 24 23 22 21 23 24 23 22 21 21 21 20 19 18 18 19 19 19 18 18 18 18 18 17 17 16 15 15 16 17 17 18 18 18 18 17 17 16 16 16 16 16 17 17 17 17 16 15 15 15 15 16 17 18 19 20 21 21 22 23
30 28 25 24 26 27 27 26 27 28 27 26 25 23 23 25 26 26 25 24 24 24 23 23 23 24 23 21 22 24 25 24 21 21 21 21 20 19 19 19 20 20 20 19 19 18 18 18 18 17 16 16 16 17 18 18 19 19 19 18 18 17 17 17 17 17 18 18 18 18 18 17 17 16 16 17 18 19 20 21 22 22 23 24 25
31 29 26 25 25 25 25 25 26 27 27 27 26 25 25 27 27 27 27 27 26 26 25 24 24 23 23 22 22 24 25 24 24 24 23 22 21 20 20 20 21 21 21 21 20 20 19 19 18 18 17 16 16 17 18 18 19 19 18 18 18 18 17 17 18 18 19 19 19 19 19 19 18 18 18 19 19 20 21 22 23 24 25 26 27
32 31 28 26 24 25 25 25 26 27 28 27 27 28 29 29 29 29 29 29 28 27 26 25 24 23 23 23 23 25 25 25 25 25 23 22 21 20 20 21 22 22 22 22 21 21 20 20 19 19 18 17 17 18 18 18 18 18 18 17 17 17 17 18 18 19 19 20 20 20 20 20 20 20 20 21 21 22 23 24 25 26 27 29 30
33 32 30 27 25 25 25 26 27 28 28 29 30 31 31 29 30 31 30 29 28 28 27 27 25 24 24 25 25 26 26 24 24 24 23 23 22 21 21 22 22 22 22 22 22 22 21 20 20 20 19 18 18 18 18 18 19 19 18 18 18 18 19 19 19 19 20 20 20 21 21 21 22 22 23 23 24 25 26 27 28 29 30 31 33
33 32 31 28 27 27 28 27 27 28 28 28 29 30 30 30 31 31 30 29 29 28 28 27 26 25 24 25 26 25 25 24 24 24 24 23 23 22 22 22 23 23 23 23 23 22 22 21 20 20 20 19 19 19 19 19 19 19 19 19 19 19 19 20 20 20 21 21 22 22 22 23 24 24 25 26 26 27 28 29 30 31 32 33 34
32 32 31 29 28 28 29 28 26 26 27 27 28 28 30 31 31 31 30 30 30 30 30 29 28 26 25 25 25 26 26 25 25 25 25 25 25 24 23 23 23 24 24 24 24 23 23 22 21 21 20 20 19 19 19 19 19 19 19 19 20 20 20 21 21 22 22 23 23 24 24 25 25 26 26 27 28 29 29 30 31 32 33 34 35
32 31 31 30 28 28 28 28 27 27 26 27 28 29 31 32 32 31 31 31 31 31 31 30 28 27 25 25 26 27 27 27 27 26 26 27 27 26 24 24 24 25 25 25 24 24 23 23 22 21 20 20 19 19 19 19 20 20 20 21 21 22 22 22 23 24 24 25 25 25 25 25 25 26 27 28 29 30 30 31 32 33 35 36 38
31 31 30 31 30 28 29 29 29 27 26 27 29 30 31 32 32 31 31 31 32 32 33 31 29 28 27 26 26 27 27 27 27 27 28 28 28 27 26 25 25 26 25 25 24 24 23 23 22 22 21 20 19 19 20 20 21 21 22 23 23 24 24 24 25 25 26 26 25 25 25 25 26 27 28 29 30 31 32 33 34 35 37 39 40
29 29 29 30 31 30 30 30 29 29 28 28 28 29 32 33 33 31 30 30 31 32 32 31 29 29 29 28 27 27 27 28 28 28 28 29 29 29 27 26 27 27 25 24 24 24 24 23 22 21 21 21 21 21 21 22 23 23 24 24 24 25 25 25 25 26 26 26 26 26 26 27 28 29 30 31 32 33 34 35 36 38 39 40 41
25 26 26 28 29 30 30 31 30 30 31 31 30 29 31 34 34 32 31 30 30 31 31 31 30 30 30 28 28 27 27 28 29 29 29 30 30 30 29 27 27 27 25 24 24 25 25 24 23 22 22 23 23 23 23 23 24 24 24 25 25 25 25 26 26 27 27 28 29 29 29 29 30 31 32 33 34 35 36 37 38 39 40 40 41
21 23 24 26 27 29 31 32 32 31 32 32 32 30 30 32 32 31 32 32 32 33 34 34 33 32 30 29 28 28 28 29 29 29 29 29 30 29 27 26 27 27 26 26 25 25 26 26 25 25 24 24 24 24 24 24 24 25 25 26 26 26 27 28 28 29 29 30 31 31 31 32 32 33 34 35 35 36 37 38 39 40 40 41 41
18 21 23 26 27 28 30 32 32 31 30 30 31 31 31 31 31 31 33 34 35 35 36 35 34 32 30 29 28 27 28 29 29 29 28 29 29 27 24 25 27 27 25 25 25 25 26 27 27 26 26 26 25 25 25 25 26 26 26 27 27 28 28 29 29 29 30 31 32 32 32 32 33 33 34 36 36 37 38 39 40 41 41 41 42
19 21 23 26 27 27 29 31 30 29 28 28 30 31 32 32 31 31 33 35 35 35 35 34 33 31 30 29 27 27 29 30 29 29 29 28 28 27 25 27 29 29 26 26 26 26 26 28 27 27 27 27 26 26 26 26 26 27 27 28 28 29 29 30 29 29 30 31 32 32 31 32 33 34 35 37 37 38 40 41 41 42 42 42 42
20 22 24 25 26 28 29 30 30 30 30 30 30 31 32 33 32 31 32 33 34 34 34 33 32 31 31 29 28 28 30 31 30 30 30 30 29 29 29 30 31 32 30 29 27 25 26 28 28 28 28 28 26 26 26 27 27 27 28 28 28 29 29 29 28 27 30 32 32 32 32 32 34 37 38 39 39 39 41 42 42 42 42 43 43
22 23 23 24 26 29 30 29 30 32 32 33 33 32 33 35 34 33 32 32 32 33 33 33 34 34 33 32 32 33 33 33 32 33 32 31 30 30 30 30 31 32 32 30 28 25 26 29 29 28 28 28 26 27 28 28 28 28 29 29 29 29 30 30 29 27 29 33 33 34 35 35 36 39 41 42 41 41 41 42 42 42 42 43 43
24 24 24 24 26 28 29 30 31 32 33 34 34 34 36 37 36 34 33 32 32 32 33 35 37 37 34 33 34 35 36 35 34 34 34 33 31 30 30 29 29 29 30 31 30 28 28 31 31 28 28 27 27 28 28 29 29 29 29 29 30 31 32 32 32 31 31 34 35 36 38 39 38 40 42 43 43 42 42 42 42 42 43 44 44
25 25 25 25 26 26 27 30 32 33 32 33 34 34 36 39 38 36 34 33 33 33 34 36 38 39 37 35 33 34 34 34 34 34 34 33 31 30 30 30 29 29 30 30 30 29 30 32 31 29 28 29 29 29 30 30 30 30 31 32 32 33 34 34 34 34 34 36 37 38 40 41 41 41 43 45 45 44 42 43 44 44 44 45 45
26 25 25 25 26 26 26 28 32 33 33 33 33 34 37 39 38 37 35 33 33 34 34 36 37 38 38 37 34 32 32 33 34 34 34 34 32 30 31 30 29 29 30 31 31 31 31 32 31 31 31 30 30 31 32 32 32 33 33 34 35 35 35 35 35 36 36 37 39 40 40 42 42 41 42 44 45 44 42 42 43 44 45 45 46
25 25 25 24 25 26 26 27 30 32 33 32 32 34 38 39 38 39 38 35 34 34 34 35 37 38 39 37 34 32 32 34 35 35 34 33 32 31 31 29 26 27 31 32 31 32 32 33 33 33 33 32 32 33 33 33 34 35 35 36 36 36 36 36 37 39 39 38 39 40 40 41 41 39 40 42 43 44 43 42 42 44 45 46 47
25 25 25 25 24 25 26 28 29 31 32 32 32 35 39 40 40 43 41 37 35 35 34 34 36 38 39 38 35 33 33 34 35 34 33 33 32 32 32 30 29 32 35 34 32 32 33 34 35 35 34 34 33 33 34 35 36 37 38 37 37 37 38 38 40 42 41 38 39 41 41 42 40 39 40 42 43 44 44 43 43 45 46 48 50
26 26 26 26 26 26 26 27 28 29 30 30 31 35 39 40 43 45 43 39 37 36 35 35 36 37 39 39 37 34 34 34 34 34 33 33 32 33 33 32 31 32 34 33 33 33 33 34 34 34 33 34 34 35 37 38 38 38 38 37 37 38 39 40 41 43 42 39 40 42 42 41 40 39 40 42 43 44 44 44 45 47 49 50 51
28 28 27 26 27 27 27 26 26 28 30 31 33 38 40 41 44 47 45 41 37 36 36 36 36 37 38 37 37 36 35 35 35 34 34 33 33 33 33 31 30 31 33 33 34 34 34 35 35 35 35 35 37 38 39 39 39 38 38 38 38 39 39 40 41 43 41 40 41 43 42 40 39 40 41 43 44 46 46 47 48 49 49 49 50
Wind_Direction
290 292 292 290 280 267 266 269 269 268 262 255 249 251 259 263 268 269 266 263 263 263 262 260 261 264 267 272 273 269 271 277 286 298 304 305 305 309 313 312 311 311 311 311 313 314 316 318 317 313 310 307 302 291 280 273 272 273 274 274 276 280 286 289 289 288 288 287 289 293 298 302 306 310 315 321 326 328 327 326 327 326 326 325 324
286 288 288 284 276 266 263 263 265 266 263 257 250 250 255 260 265 266 263 261 261 261 260 259 259 262 266 270 270 268 271 277 284 294 303 305 305 309 313 313 313 315 316 316 318 319 320 323 322 319 314 311 306 295 283 276 273 273 273 272 274 280 285 289 290 290 290 290 291 293 297 301 307 313 320 327 331 331 331 332 333 333 334 332 331
282 284 282 278 273 268 264 263 265 265 263 259 252 250 253 257 261 261 259 259 260 259 258 257 255 259 264 269 268 267 272 279 286 295 303 305 305 308 311 312 314 318 320 320 320 322 324 324 324 322 318 315 311 301 287 279 277 275 274 273 274 280 286 290 293 295 295 295 295 297 302 307 313 319 326 331 334 335 337 340 341 341 343 343 342
277 277 275 274 274 273 270 268 268 267 265 260 254 250 251 255 256 256 256 258 258 255 255 254 252 253 259 264 264 264 270 281 289 297 303 305 305 306 308 310 314 319 322 322 323 324 327 327 326 324 321 319 316 304 290 280 278 276 274 273 275 282 288 294 299 300 301 301 302 304 308 312 316 321 327 333 337 341 343 344 346 348 351 351 350
271 269 268 271 274 276 275 274 273 271 267 261 256 251 249 252 252 253 254 256 255 251 252 252 249 249 251 256 259 260 268 280 289 295 303 305 304 303 305 309 314 319 321 322 324 326 330 332 332 329 324 322 319 310 296 282 275 272 269 268 273 283 291 299 302 304 305 305 305 306 309 310 314 322 330 337 341 343 344 347 351 353 354 353 353
265 263 262 265 270 275 278 278 276 275 270 263 257 250 247 248 249 250 251 253 253 249 249 250 247 244 244 249 253 257 265 276 285 294 303 304 301 299 301 308 313 318 320 322 324 327 332 334 333 331 326 323 322 317 306 291 277 264 260 263 272 284 294 301 304 305 305 303 303 303 306 308 315 324 333 339 342 345 349 352 354 353 353 356 359
261 259 258 260 264 269 274 275 275 275 272 265 256 246 244 245 245 246 248 250 250 247 246 247 244 239 239 243 249 255 263 273 282 292 299 298 295 294 298 307 314 318 321 323 326 331 333 331 330 328 325 323 323 322 315 300 282 266 259 263 276 290 298 301 301 299 297 297 298 300 304 309 316 325 333 340 348 354 355 352 353 354 356 358 0
259 258 257 259 262 266 269 271 271 272 269 262 252 243 242 244 243 244 246 247 247 244 243 244 242 238 237 241 248 256 263 269 277 286 293 293 292 291 296 305 313 318 322 324 329 334 333 329 329 329 324 320 321 326 322 311 297 282 275 278 284 290 293 294 290 287 288 292 298 302 304 308 314 321 334 351 0 353 342 344 352 354 354 353 353
257 259 259 260 262 265 267 268 267 265 262 255 248 244 244 243 243 244 245 244 241 239 240 242 241 238 238 243 250 257 261 265 272 281 287 290 291 289 294 304 311 316 321 325 328 331 330 328 330 330 325 319 319 330 334 326 317 310 306 302 296 292 289 286 285 286 289 293 300 300 299 301 307 323 350 5 332 320 324 335 343 342 341 345 347
255 259 260 262 263 262 263 265 265 261 257 253 248 248 249 247 247 248 248 242 235 235 239 242 241 240 241 245 250 254 256 260 268 278 283 287 289 288 292 301 308 313 319 323 324 326 328 329 331 330 326 321 318 337 348 344 344 345 337 325 315 306 296 287 285 288 290 295 299 294 291 292 303 331 348 309 300 305 314 323 329 332 336 342 346
254 259 261 262 261 258 257 260 261 259 258 254 251 252 252 251 250 250 251 241 231 234 240 242 241 240 240 243 247 248 250 257 267 275 281 286 288 287 290 297 305 311 317 322 323 326 330 331 331 330 328 321 314 336 356 2 14 8 351 336 325 312 300 296 291 288 291 293 288 281 283 289 305 319 308 295 294 301 311 322 328 332 337 342 345
255 260 262 261 257 252 251 252 255 258 257 253 252 254 252 250 249 248 245 235 229 235 239 239 239 239 240 242 242 242 245 255 265 273 279 284 286 286 288 294 302 309 315 323 325 327 332 333 329 324 325 320 309 317 351 1 3 355 338 322 314 304 293 291 290 288 288 286 278 275 278 287 303 305 295 291 291 301 316 326 331 333 337 341 343
254 258 261 262 257 248 246 249 253 256 256 253 252 252 250 249 247 243 237 230 230 236 237 237 239 242 245 245 241 240 245 254 263 271 277 281 284 284 286 291 298 305 313 321 326 327 329 330 325 319 322 324 308 291 296 292 291 305 307 292 283 278 271 271 280 287 285 279 277 282 286 295 301 299 296 292 291 305 322 327 330 331 334 336 336
249 253 259 262 258 248 246 251 253 253 252 252 251 250 248 248 245 239 234 232 233 235 238 241 242 244 249 248 243 244 247 254 262 270 276 280 282 283 285 288 294 300 307 316 323 324 319 316 315 313 317 325 313 286 288 278 270 282 284 268 256 255 253 255 259 266 278 283 285 290 298 302 298 298 299 292 289 301 312 319 325 327 329 329 331
244 249 256 258 254 248 248 253 254 250 247 248 248 249 249 246 242 238 236 236 236 236 239 243 242 241 244 244 244 246 249 254 261 268 275 278 281 284 284 285 290 294 300 309 317 317 307 301 303 304 306 311 302 286 279 270 267 273 268 254 249 251 256 260 258 260 272 282 288 292 295 295 295 299 297 289 286 292 299 306 312 317 329 333 339
241 248 254 253 250 249 250 254 253 247 244 245 246 247 249 246 242 238 237 238 238 238 239 241 241 239 239 240 243 246 250 256 259 266 272 276 281 283 277 279 286 290 294 302 309 309 301 293 294 294 291 292 289 283 276 269 266 265 261 257 252 255 261 258 260 270 274 274 280 286 289 291 296 298 292 286 286 292 298 300 296 303 334 338 346
242 247 249 249 249 249 249 251 249 244 242 243 244 247 248 244 242 240 238 240 241 239 237 237 239 240 239 240 243 244 248 256 262 267 270 273 278 279 274 276 283 286 289 296 302 304 300 293 290 288 287 285 284 283 279 273 269 265 265 265 257 255 260 260 262 270 272 273 278 282 286 288 293 291 286 283 285 293 295 291 291 307 337 339 340
243 244 243 247 248 246 247 248 245 239 238 239 241 246 247 244 244 241 238 241 244 242 238 238 239 238 238 240 244 245 246 252 261 266 269 271 273 276 276 277 280 282 286 292 297 299 299 295 290 286 283 281 281 281 277 272 269 267 266 266 262 257 258 263 267 268 269 275 280 280 281 284 286 283 278 278 283 290 291 290 299 314 327 332 331
242 241 241 247 248 245 247 248 244 239 236 236 237 241 243 242 238 233 234 240 244 243 241 241 241 240 239 240 244 248 249 252 258 263 266 270 272 274 274 274 276 281 285 289 293 297 299 297 292 286 279 276 276 277 275 271 267 267 267 266 264 262 261 264 269 270 272 276 277 276 277 278 276 272 271 274 279 280 279 281 294 307 317 323 323
241 241 243 247 248 246 247 246 241 237 236 234 236 238 238 237 234 234 242 247 246 245 243 242 243 244 243 242 244 248 251 255 259 261 265 268 271 273 272 271 274 278 283 287 291 296 299 298 294 289 282 277 275 276 276 274 269 266 267 265 263 262 263 267 271 274 275 275 274 273 272 269 266 264 264 267 269 263 258 268 286 300 310 315 318
237 239 246 248 246 245 245 242 236 234 233 232 233 237 239 242 243 245 247 246 247 248 246 243 243 244 244 244 245 249 253 257 259 260 264 267 269 270 270 271 272 276 280 284 288 293 296 297 295 291 286 281 276 275 275 274 270 266 265 264 263 264 268 271 273 274 273 271 270 268 267 264 262 261 261 263 260 252 254 271 292 302 307 311 313
237 240 246 248 245 243 240 238 236 234 233 232 233 237 241 244 246 245 241 241 247 250 247 245 244 245 245 246 248 251 254 256 258 260 264 267 268 268 269 270 272 275 279 282 286 291 293 294 294 290 285 280 276 273 273 272 269 266 264 263 264 267 270 272 272 270 268 266 264 263 263 262 260 259 259 260 256 251 262 283 294 300 304 306 308
240 244 247 247 245 243 240 238 238 237 236 235 236 239 242 244 246 244 239 240 246 249 247 246 245 246 247 249 250 252 254 256 258 262 264 265 266 266 265 266 269 273 278 283 286 289 291 294 294 292 286 281 277 274 272 271 268 265 264 264 266 269 272 273 272 269 265 262 260 259 260 260 258 257 257 256 253 255 268 283 290 295 298 301 303
241 246 248 249 247 244 242 241 241 242 240 239 240 242 244 245 246 243 239 239 243 247 247 246 246 248 249 249 250 251 255 258 261 263 264 265 266 265 264 264 267 272 277 282 285 287 290 293 295 295 290 284 279 276 272 270 267 264 263 264 267 272 274 275 273 269 265 260 257 257 258 259 257 255 254 251 251 257 267 278 285 290 293 296 298
243 245 245 247 247 245 244 243 244 243 240 240 245 247 247 247 245 242 240 240 243 246 246 246 248 250 250 250 252 254 257 260 262 263 263 264 264 263 263 263 267 272 277 280 282 285 289 292 295 296 293 287 280 276 273 270 266 263 262 263 267 272 275 275 272 268 264 260 258 257 257 258 257 255 252 250 252 258 267 276 281 285 289 292 295
250 247 244 245 247 246 244 243 242 240 240 244 248 249 248 247 245 242 241 242 244 245 245 248 250 251 252 253 256 259 261 262 263 262 261 261 261 261 262 264 268 272 274 276 278 282 286 290 292 293 293 288 280 275 273 270 267 264 263 264 267 272 275 274 271 267 264 261 260 260 259 259 258 256 253 253 256 262 269 275 279 283 286 289 293
253 248 246 246 246 246 246 245 240 237 239 244 247 248 249 247 243 241 241 243 244 245 247 250 252 253 255 257 260 262 262 262 262 261 260 259 258 258 260 263 267 270 271 272 276 280 283 287 289 291 291 288 280 274 271 269 267 265 264 266 269 273 274 273 271 268 265 264 263 262 262 261 259 257 256 257 260 264 269 274 278 282 286 290 293
252 250 251 249 246 246 247 246 242 238 238 242 244 248 250 247 243 240 240 242 245 247 250 252 254 256 258 260 264 264 263 262 260 259 258 258 256 256 257 260 265 268 269 271 275 278 280 283 287 289 289 286 280 273 269 267 265 264 264 267 270 272 272 272 270 268 266 265 265 264 263 263 261 260 260 261 262 265 269 274 279 283 287 291 294
254 254 257 254 247 243 242 243 242 240 241 242 243 247 248 244 240 239 240 242 246 248 251 252 255 258 260 262 263 263 263 261 258 256 257 257 256 255 255 259 263 266 269 271 274 277 278 281 284 286 285 284 280 273 269 266 264 264 264 266 268 269 269 269 267 266 265 265 265 265 265 265 264 264 263 263 264 267 272 276 280 283 287 290 293
256 257 261 260 250 242 241 241 241 241 241 243 244 245 243 238 238 240 240 243 247 249 249 251 254 258 261 262 262 263 265 262 259 259 259 257 256 255 255 258 262 266 269 270 272 275 276 279 281 282 282 282 279 274 270 267 264 263 263 265 266 266 266 266 267 267 267 267 268 268 268 267 266 266 266 266 268 271 275 278 281 283 286 288 290
255 256 261 262 253 245 244 243 242 241 242 244 244 241 238 237 239 243 243 245 248 248 249 251 253 257 260 262 264 264 264 262 261 262 261 257 256 255 255 258 260 263 267 270 272 274 276 277 279 280 280 279 276 273 271 268 265 263 262 262 263 264 265 266 267 269 270 271 271 271 270 270 269 269 269 270 272 274 276 278 280 282 284 286 287
251 253 259 262 254 247 247 246 244 242 242 243 240 237 237 239 241 244 245 245 246 247 248 251 254 256 259 262 265 264 261 259 258 258 258 257 256 255 256 258 260 262 266 269 272 274 275 275 277 278 277 276 273 273 271 268 266 263 261 260 260 261 263 265 267 269 271 273 273 272 272 271 272 272 272 273 273 274 276 277 279 282 284 285 286
247 249 255 261 257 250 249 249 246 243 241 240 238 238 240 241 242 243 244 244 244 245 248 251 254 256 258 262 263 262 259 257 256 257 256 256 255 255 256 259 261 263 266 269 271 273 274 274 275 275 275 273 271 271 270 268 266 263 261 260 260 261 262 265 268 270 272 273 274 273 273 272 272 273 273 274 274 275 277 278 280 282 284 285 286
246 248 253 258 257 251 248 247 245 243 242 239 239 241 242 241 241 240 241 242 243 246 249 251 253 255 257 259 259 258 257 256 257 257 256 255 255 255 255 258 262 264 266 267 269 270 270 271 272 272 272 271 270 269 269 267 266 264 263 262 261 262 264 266 269 270 272 273 273 273 273 273 273 274 274 275 276 277 279 280 282 284 285 287 288
249 250 251 254 255 251 246 243 243 242 241 241 241 242 242 242 241 241 242 243 245 248 250 251 252 251 250 252 254 256 258 257 256 255 254 255 255 255 256 257 260 262 264 266 267 268 268 269 269 269 269 270 269 269 269 268 267 266 264 262 262 263 265 267 268 270 271 272 272 273 273 274 275 275 277 278 279 280 281 282 284 286 287 288 288
250 251 250 250 252 252 247 244 245 244 242 242 242 243 245 246 245 244 244 246 248 250 250 251 250 247 247 250 251 253 255 254 252 251 251 254 256 256 257 258 259 261 262 264 266 267 267 267 267 266 267 267 267 266 265 264 264 263 261 261 262 263 266 268 270 271 272 272 273 273 274 275 277 278 279 279 280 281 282 283 285 286 287 288 288
250 251 251 249 250 252 252 249 247 244 241 240 240 242 245 247 248 248 246 248 249 249 251 251 247 245 251 253 251 252 253 251 251 250 251 254 257 259 259 259 259 260 260 261 263 265 265 264 264 263 262 261 260 260 259 258 258 259 259 260 262 265 268 271 273 273 274 274 274 275 276 277 278 279 279 280 280 281 283 284 285 286 286 286 287
249 249 249 249 249 250 252 251 247 243 239 237 239 242 243 246 249 249 248 249 250 249 250 248 245 247 253 253 251 252 251 250 250 251 252 256 259 261 262 261 260 259 259 260 261 261 261 260 260 259 258 257 257 257 257 257 257 258 260 262 265 268 270 271 272 273 274 274 275 275 276 277 277 278 279 280 281 282 284 284 284 285 285 286 287
250 249 247 247 249 250 251 250 248 245 241 239 240 243 244 244 246 248 248 248 247 248 249 247 247 251 252 250 251 252 250 250 250 250 253 257 261 263 263 261 259 258 258 258 257 257 258 258 258 258 258 258 258 259 259 260 261 262 263 265 267 269 270 271 272 273 274 275 276 277 278 279 279 280 281 281 282 283 284 284 284 285 286 287 288
255 255 253 252 253 255 254 252 249 247 245 243 242 245 245 242 244 248 249 246 243 243 245 247 249 250 249 248 250 250 250 250 250 251 254 257 261 264 266 265 261 258 256 254 254 254 255 256 257 259 260 259 260 261 262 262 263 265 266 267 268 270 271 273 273 275 276 277 278 279 280 280 281 281 282 282 283 284 285 285 286 287 288 289 289
269 265 260 256 256 258 257 253 251 249 248 245 243 243 244 244 246 248 248 245 242 241 243 247 248 247 247 248 248 249 251 251 251 252 254 258 262 265 266 263 259 255 253 252 253 254 254 256 259 261 262 262 263 263 264 264 265 266 268 269 270 272 274 275 276 277 278 279 279 280 281 282 282 283 283 284 286 287 287 288 289 289 290 290 290
278 273 267 261 260 260 258 255 253 250 249 247 245 243 242 243 246 247 246 245 244 244 246 247 247 246 247 248 247 247 249 249 249 250 252 256 259 260 257 255 255 255 257 259 259 256 254 256 259 263 265 265 266 266 265 265 266 267 269 270 271 273 274 275 278 280 280 279 279 280 281 282 283 284 284 285 287 289 289 290 290 290 290 290 290
278 275 273 271 268 264 261 257 253 249 246 246 246 244 243 244 246 246 246 246 246 246 246 245 243 245 247 246 243 243 245 247 247 248 250 252 255 258 257 255 256 258 261 263 261 258 259 259 259 263 265 266 266 265 265 265 266 267 269 270 271 273 274 275 277 280 280 279 279 281 282 283 284 284 284 285 287 288 289 289 289 289 289 289 289
283 280 279 278 274 270 267 263 256 251 248 246 247 246 245 245 247 247 246 246 246 246 244 240 240 245 249 247 243 242 242 242 244 246 248 250 254 257 258 258 259 260 261 259 256 259 263 263 263 264 263 262 262 263 264 265 266 268 269 270 270 271 272 273 274 276 279 281 282 284 284 285 285 286 286 287 288 288 288 289 289 289 289 289 289
284 284 283 281 278 276 274 269 261 254 250 247 247 246 245 245 246 248 248 247 247 246 243 239 238 242 247 249 248 246 242 240 242 244 246 249 252 254 257 258 258 259 260 258 257 257 256 259 264 265 260 258 261 263 265 266 268 268 269 269 270 271 272 274 274 275 277 280 283 285 286 286 287 287 288 289 289 289 290 289 289 290 290 290 290
282 283 283 282 279 276 274 270 264 259 253 248 247 247 245 244 246 248 248 248 247 246 245 242 241 243 245 247 252 252 245 240 242 244 244 248 251 253 255 256 256 258 259 259 259 258 255 258 261 259 256 259 263 264 265 267 267 268 269 270 272 273 274 276 277 277 277 280 283 285 286 288 289 289 289 290 290 291 291 290 290 291 291 291 292
280 281 282 281 279 275 271 265 262 262 258 250 247 248 245 242 244 246 247 247 246 245 244 243 244 246 246 247 251 250 243 240 242 243 243 246 251 253 254 256 261 264 261 258 259 260 259 259 258 256 257 260 262 264 265 266 268 269 271 271 272 273 275 276 277 278 279 282 284 286 288 290 291 290 289 289 290 291 290 290 290 290 291 291 292
280 282 283 283 280 276 271 263 259 261 259 251 248 249 246 244 247 248 248 247 245 243 243 243 243 246 247 247 247 244 241 242 242 241 240 245 250 252 253 253 254 254 254 256 260 262 261 259 257 257 259 259 260 263 265 267 269 270 270 271 272 274 275 277 279 280 283 285 285 287 289 290 290 289 288 287 289 290 290 289 288 289 290 290 291
280 283 284 285 284 278 272 266 261 260 258 252 249 249 247 246 247 247 246 246 243 241 242 242 243 244 245 244 243 242 242 244 244 240 240 244 249 251 252 250 244 244 250 256 260 261 261 261 259 257 258 259 261 264 267 269 270 271 272 273 275 276 278 280 281 282 285 285 284 285 287 287 287 287 287 287 288 289 289 289 288 288 289 289 290
280 282 283 285 286 283 277 271 265 261 258 255 253 251 247 244 242 241 243 244 242 240 241 242 242 242 242 242 242 242 243 245 244 240 240 244 248 251 251 250 246 246 250 254 255 255 256 258 258 257 258 260 264 267 269 270 270 272 274 276 277 278 280 281 281 282 283 283 282 284 286 286 286 286 286 287 288 288 289 289 288 289 289 290 291
279 280 281 283 285 285 283 279 273 265 256 250 249 247 243 238 236 237 240 243 243 241 242 243 243 242 240 240 242 243 243 245 245 243 242 245 248 250 251 251 250 249 249 249 249 248 248 249 253 257 261 265 267 269 270 271 272 274 275 276 277 278 279 280 279 279 280 281 283 285 286 285 285 286 287 288 288 288 288 287 287 288 289 290 291
Height
5843 5842 5841 5842 5842 5842 5842 5841 5842 5842 5842 5842 5842 5841 5840 5840 5840 5840 5840 5839 5840 5839 5839 5839 5839 5839 5839 5840 5840 5840 5840 5839 5839 5839 5839 5838 5838 5837 5836 5836 5835 5834 5833 5832 5832 5831 5830 5829 5829 5828 5827 5826 5825 5825 5825 5825 5825 5826 5826 5826 5827 5827 5828 5828 5828 5828 5828 5828 5828 5829 5829 5829 5829 5828 5828 5828 5827 5827 5826 5826 5825 5825 5824 5824 5823
5840 5840 5839 5839 5840 5840 5840 5840 5840 5841 5841 5841 5841 5840 5839 5838 5838 5838 5838 5838 5838 5838 5838 5838 5838 5838 5838 5839 5839 5839 5838 5838 5838 5838 5838 5837 5837 5836 5836 5835 5834 5833 5832 5832 5831 5830 5829 5828 5828 5827 5826 5825 5824 5824 5824 5824 5824 5825 5825 5825 5826 5826 5826 5827 5827 5827 5827 5828 5828 5828 5828 5828 5828 5828 5827 5827 5827 5826 5826 5825 5825 5824 5824 5823 5823
5838 5837 5837 5836 5837 5838 5839 5839 5839 5839 5839 5839 5839 5838 5838 5837 5836 5836 5836 5836 5837 5837 5837 5837 5837 5837 5837 5838 5838 5837 5837 5837 5837 5837 5837 5836 5836 5836 5835 5834 5833 5833 5832 5831 5830 5829 5828 5827 5827 5826 5825 5824 5824 5823 5823 5823 5823 5824 5824 5824 5825 5825 5825 5826 5826 5827 5827 5827 5827 5827 5827 5827 5827 5827 5827 5826 5826 5825 5825 5824 5824 5824 5823 5823 5822
5835 5835 5834 5834 5835 5836 5837 5837 5837 5837 5838 5838 5837 5837 5836 5836 5835 5835 5835 5835 5836 5836 5836 5836 5836 5836 5837 5837 5836 5836 5836 5836 5836 5836 5836 5835 5835 5835 5834 5833 5833 5832 5831 5831 5830 5829 5828 5827 5826 5825 5824 5824 5823 5822 5822 5822 5823 5823 5823 5823 5824 5824 5825 5825 5826 5826 5826 5827 5827 5827 5827 5827 5826 5826 5826 5825 5825 5825 5824 5824 5823 5823 5822 5822 5821
5832 5832 5832 5832 5833 5833 5834 5835 5836 5836 5836 5836 5835 5835 5834 5834 5834 5833 5834 5834 5834 5835 5835 5835 5835 5835 5835 5835 5835 5835 5835 5835 5835 5835 5835 5834 5834 5834 5833 5833 5832 5832 5831 5830 5829 5828 5827 5826 5825 5824 5824 5823 5822 5822 5822 5822 5822 5822 5822 5823 5823 5824 5824 5824 5825 5825 5826 5826 5826 5826 5826 5826 5826 5825 5825 5825 5824 5824 5824 5823 5823 5822 5822 5822 5821
5830 5830 5830 5830 5830 5830 5831 5833 5834 5834 5834 5834 5834 5833 5833 5832 5832 5832 5832 5832 5833 5833 5833 5834 5834 5834 5834 5834 5834 5834 5834 5834 5834 5834 5834 5834 5834 5833 5833 5832 5832 5831 5830 5830 5829 5828 5827 5826 5825 5824 5823 5822 5822 5821 5821 5821 5821 5822 5822 5822 5822 5823 5823 5824 5824 5825 5825 5825 5825 5825 5825 5825 5825 5825 5824 5824 5824 5823 5823 5823 5822 5822 5822 5821 5821
5828 5827 5827 5828 5827 5828 5829 5830 5831 5832 5832 5832 5831 5831 5831 5830 5830 5830 5831 5831 5831 5832 5832 5832 5833 5833 5833 5833 5833 5833 5833 5833 5833 5833 5833 5833 5833 5833 5832 5831 5831 5831 5830 5829 5828 5827 5826 5825 5824 5823 5822 5822 5821 5821 5821 5821 5821 5821 5821 5821 5822 5822 5823 5823 5824 5824 5824 5824 5825 5825 5825 5824 5824 5824 5824 5823 5823 5823 5823 5822 5822 5822 5821 5821 5821
5826 5825 5825 5826 5825 5826 5827 5827 5828 5829 5829 5829 5829 5829 5829 5829 5828 5828 5829 5829 5830 5830 5831 5831 5831 5832 5832 5832 5832 5832 5832 5832 5832 5832 5832 5832 5832 5832 5831 5831 5830 5830 5829 5828 5828 5827 5826 5825 5824 5823 5822 5821 5821 5821 5820 5821 5821 5821 5821 5821 5821 5822 5822 5822 5823 5823 5823 5824 5824 5824 5824 5824 5823 5823 5823 5823 5823 5823 5822 5822 5822 5822 5821 5821 5820
5823 5824 5824 5824 5824 5824 5824 5824 5825 5826 5827 5827 5827 5827 5828 5827 5827 5827 5827 5827 5828 5829 5829 5830 5830 5830 5830 5830 5830 5831 5831 5831 5831 5831 5831 5831 5831 5831 5830 5830 5830 5830 5829 5828 5827 5827 5826 5825 5824 5823 5822 5821 5821 5820 5820 5821 5821 5821 5821 5821 5821 5821 5821 5822 5822 5822 5822 5823 5823 5823 5823 5823 5823 5823 5822 5822 5822 5822 5822 5822 5821 5821 5821 5821 5820
5821 5821 5821 5821 5821 5821 5821 5822 5823 5824 5825 5825 5826 5826 5826 5826 5826 5826 5825 5826 5826 5827 5828 5828 5829 5829 5829 5829 5829 5829 5830 5830 5830 5830 5830 5830 5830 5830 5829 5829 5829 5829 5829 5828 5827 5826 5825 5824 5823 5822 5821 5821 5821 5820 5820 5821 5821 5821 5821 5821 5821 5821 5821 5821 5821 5822 5822 5822 5822 5822 5822 5822 5822 5822 5822 5822 5822 5821 5821 5821 5821 5821 5821 5820 5820
5818 5819 5818 5818 5818 5819 5819 5820 5821 5822 5823 5823 5824 5824 5824 5824 5824 5824 5824 5824 5825 5826 5826 5827 5827 5827 5827 5828 5828 5828 5828 5829 5829 5829 5829 5829 5829 5829 5828 5829 5828 5828 5828 5827 5826 5826 5825 5823 5822 5822 5822 5821 5821 5820 5820 5821 5821 5821 5821 5821 5821 5821 5821 5821 5821 5821 5821 5821 5821 5822 5822 5822 5821 5821 5821 5821 5821 5821 5821 5821 5821 5821 5820 5820 5820
5816 5816 5815 5815 5815 5816 5817 5818 5819 5820 5821 5821 5821 5822 5822 5823 5822 5822 5822 5823 5823 5824 5825 5825 5826 5826 5826 5827 5827 5827 5827 5827 5828 5828 5828 5828 5828 5828 5828 5828 5828 5827 5827 5826 5826 5825 5824 5824 5822 5821 5822 5821 5821 5820 5820 5820 5820 5820 5820 5820 5820 5820 5820 5820 5820 5820 5820 5821 5821 5821 5821 5821 5821 5821 5821 5821 5821 5821 5821 5821 5821 5820 5820 5819 5819
5813 5813 5813 5813 5813 5814 5814 5815 5816 5817 5818 5819 5819 5820 5821 5821 5820 5820 5820 5821 5822 5823 5823 5824 5825 5825 5826 5826 5826 5826 5826 5826 5827 5827 5827 5827 5827 5827 5827 5827 5826 5826 5826 5825 5825 5824 5824 5824 5823 5822 5821 5821 5821 5820 5820 5820 5819 5819 5819 5820 5820 5820 5819 5819 5820 5820 5820 5820 5820 5820 5820 5820 5820 5820 5820 5820 5820 5820 5820 5820 5820 5820 5819 5819 5818
5809 5810 5810 5811 5811 5812 5812 5813 5814 5815 5816 5816 5817 5818 5819 5819 5819 5819 5819 5820 5820 5822 5823 5823 5824 5825 5826 5825 5825 5825 5825 5825 5826 5826 5826 5826 5826 5826 5826 5825 5825 5825 5825 5824 5824 5824 5824 5824 5824 5823 5821 5820 5820 5821 5820 5819 5818 5819 5819 5819 5819 5819 5819 5819 5819 5819 5819 5820 5820 5820 5820 5820 5820 5820 5820 5820 5820 5819 5819 5819 5819 5819 5819 5818 5818
5805 5806 5807 5808 5809 5809 5810 5810 5811 5813 5813 5814 5814 5816 5816 5817 5817 5817 5818 5818 5819 5820 5822 5822 5823 5825 5825 5824 5824 5824 5824 5824 5825 5825 5825 5825 5825 5825 5825 5824 5824 5824 5823 5823 5823 5823 5823 5823 5823 5823 5822 5820 5820 5821 5821 5819 5818 5818 5819 5819 5819 5818 5818 5818 5818 5818 5819 5819 5819 5819 5819 5819 5819 5819 5819 5819 5819 5819 5818 5818 5818 5818 5818 5818 5818
5803 5804 5805 5806 5807 5806 5807 5807 5808 5810 5811 5811 5812 5813 5814 5815 5815 5816 5816 5817 5817 5819 5820 5821 5822 5823 5823 5823 5823 5823 5823 5823 5823 5824 5824 5824 5824 5824 5823 5823 5823 5823 5822 5822 5821 5821 5822 5822 5822 5822 5821 5821 5820 5820 5820 5820 5819 5819 5818 5818 5818 5818 5817 5817 5818 5818 5818 5818 5818 5818 5818 5818 5818 5818 5819 5819 5818 5818 5818 5818 5818 5818 5818 5818 5818
5801 5801 5802 5803 5804 5804 5804 5805 5806 5808 5808 5808 5809 5810 5811 5812 5813 5814 5814 5815 5816 5817 5818 5819 5820 5821 5821 5821 5822 5822 5822 5821 5821 5822 5823 5823 5823 5823 5822 5822 5822 5821 5821 5820 5820 5820 5820 5821 5821 5820 5820 5820 5820 5820 5819 5819 5819 5819 5818 5818 5818 5817 5817 5816 5817 5817 5817 5818 5817 5817 5818 5818 5818 5818 5818 5818 5817 5817 5817 5817 5817 5817 5817 5817 5817
5798 5798 5798 5800 5801 5801 5801 5802 5803 5804 5805 5806 5807 5808 5809 5810 5810 5811 5812 5813 5814 5815 5816 5817 5818 5818 5818 5819 5820 5821 5822 5821 5821 5821 5821 5821 5822 5822 5821 5821 5821 5820 5820 5819 5819 5819 5819 5819 5819 5819 5819 5819 5819 5819 5818 5818 5818 5818 5818 5817 5817 5817 5816 5816 5816 5816 5817 5817 5817 5817 5817 5817 5817 5817 5817 5817 5817 5816 5816 5816 5817 5817 5817 5816 5816
5795 5795 5796 5797 5799 5799 5799 5799 5800 5801 5802 5804 5806 5806 5806 5807 5807 5808 5809 5811 5811 5812 5814 5815 5816 5816 5817 5817 5818 5819 5820 5820 5820 5820 5820 5820 5820 5821 5821 5820 5820 5819 5818 5818 5817 5817 5818 5818 5818 5818 5817 5817 5817 5817 5817 5817 5817 5817 5817 5816 5816 5816 5816 5815 5815 5815 5816 5816 5816 5816 5816 5816 5816 5816 5816 5816 5816 5816 5816 5816 5816 5816 5816 5816 5816
5792 5793 5794 5795 5796 5797 5797 5797 5797 5798 5800 5802 5803 5803 5803 5804 5805 5806 5808 5808 5809 5810 5812 5813 5814 5814 5815 5816 5816 5817 5817 5818 5818 5818 5819 5819 5819 5819 5819 5819 5818 5818 5817 5816 5816 5816 5816 5817 5817 5816 5816 5816 5816 5816 5816 5816 5815 5815 5815 5815 5815 5815 5815 5815 5815 5815 5815 5815 5815 5815 5814 5814 5814 5815 5815 5815 5815 5815 5815 5815 5815 5815 5815 5815 5815
5789 5791 5792 5792 5793 5794 5794 5795 5795 5796 5798 5799 5800 5801 5801 5803 5804 5806 5807 5807 5807 5809 5810 5811 5811 5812 5813 5813 5814 5815 5815 5816 5816 5816 5817 5817 5817 5817 5817 5817 5816 5816 5815 5815 5814 5815 5815 5815 5815 5815 5814 5814 5814 5814 5814 5814 5814 5814 5814 5814 5814 5814 5814 5814 5814 5813 5813 5813 5813 5813 5813 5813 5813 5814 5814 5814 5815 5815 5814 5814 5814 5814 5814 5814 5814
5787 5789 5789 5790 5790 5791 5791 5793 5794 5795 5796 5797 5798 5799 5800 5801 5802 5804 5805 5805 5805 5806 5807 5808 5809 5810 5811 5811 5812 5813 5814 5814 5814 5814 5815 5815 5815 5816 5815 5815 5814 5813 5813 5813 5813 5813 5813 5813 5813 5813 5812 5812 5812 5812 5812 5812 5812 5812 5812 5812 5812 5812 5812 5812 5812 5812 5812 5812 5812 5812 5812 5812 5812 5813 5813 5813 5814 5814 5813 5813 5813 5813 5813 5813 5813
5785 5786 5787 5787 5788 5788 5789 5790 5792 5793 5795 5795 5796 5797 5797 5798 5800 5801 5803 5803 5803 5804 5805 5806 5807 5807 5808 5809 5810 5811 5811 5812 5812 5813 5813 5813 5813 5813 5813 5813 5812 5811 5811 5811 5811 5811 5811 5812 5812 5811 5811 5810 5810 5810 5810 5810 5810 5810 5811 5811 5811 5811 5811 5811 5811 5810 5810 5810 5811 5811 5811 5811 5811 5811 5812 5812 5812 5812 5812 5812 5812 5812 5812 5812 5812
5783 5783 5783 5784 5785 5786 5787 5789 5790 5791 5792 5793 5794 5794 5795 5796 5797 5798 5800 5801 5801 5802 5803 5804 5804 5805 5806 5807 5808 5808 5809 5809 5810 5811 5811 5811 5811 5811 5811 5811 5810 5810 5809 5809 5809 5809 5809 5810 5810 5810 5809 5809 5809 5809 5809 5809 5809 5809 5809 5809 5809 5809 5809 5809 5809 5809 5809 5809 5809 5809 5809 5810 5810 5810 5810 5810 5811 5811 5810 5811 5811 5811 5811 5811 5810
5779 5780 5781 5781 5783 5784 5786 5787 5788 5788 5788 5790 5791 5792 5793 5793 5794 5796 5797 5798 5799 5800 5801 5801 5802 5803 5804 5804 5805 5806 5806 5807 5807 5808 5809 5809 5809 5809 5809 5809 5808 5808 5807 5807 5807 5807 5807 5808 5808 5808 5807 5807 5807 5807 5807 5807 5807 5807 5807 5807 5807 5807 5807 5807 5807 5807 5807 5807 5807 5808 5808 5808 5808 5808 5808 5809 5809 5809 5809 5809 5809 5809 5809 5809 5809
5776 5777 5778 5779 5780 5782 5784 5785 5786 5786 5787 5788 5789 5790 5791 5791 5792 5793 5794 5795 5796 5797 5798 5799 5800 5801 5801 5802 5803 5803 5804 5804 5805 5806 5806 5807 5807 5807 5807 5807 5806 5806 5805 5805 5805 5805 5805 5805 5806 5806 5805 5805 5805 5805 5805 5805 5805 5805 5805 5806 5806 5806 5805 5805 5805 5805 5805 5806 5806 5806 5806 5806 5806 5806 5807 5807 5807 5807 5807 5807 5807 5807 5807 5807 5806
5774 5775 5776 5777 5779 5779 5781 5782 5783 5784 5785 5786 5787 5788 5789 5789 5790 5792 5792 5792 5794 5795 5796 5798 5798 5799 5799 5800 5800 5801 5801 5802 5803 5803 5804 5804 5804 5805 5805 5804 5804 5804 5803 5803 5803 5803 5803 5803 5803 5803 5803 5803 5803 5803 5803 5803 5803 5803 5803 5804 5804 5804 5804 5803 5803 5803 5803 5804 5804 5804 5804 5804 5804 5805 5805 5805 5805 5805 5805 5805 5805 5805 5805 5804 5804
5772 5773 5774 5775 5777 5777 5778 5779 5780 5781 5782 5783 5784 5786 5787 5787 5788 5790 5790 5790 5791 5792 5794 5795 5796 5796 5797 5797 5798 5799 5799 5799 5800 5801 5801 5801 5802 5802 5802 5802 5802 5802 5801 5801 5801 5801 5801 5801 5801 5801 5801 5801 5801 5801 5801 5801 5801 5801 5802 5802 5802 5802 5802 5801 5801 5801 5801 5802 5802 5802 5802 5802 5802 5802 5803 5803 5803 5803 5803 5802 5802 5802 5802 5802 5802
5770 5770 5771 5772 5773 5774 5775 5776 5778 5779 5779 5780 5782 5784 5785 5785 5785 5787 5787 5788 5789 5790 5791 5793 5793 5794 5794 5795 5796 5796 5796 5797 5797 5798 5799 5799 5799 5800 5800 5800 5800 5800 5799 5799 5799 5799 5798 5798 5799 5799 5799 5799 5799 5799 5799 5799 5799 5799 5799 5800 5800 5800 5799 5799 5799 5799 5799 5799 5799 5800 5800 5800 5800 5800 5800 5800 5800 5800 5800 5800 5800 5800 5799 5799 5799
5767 5768 5769 5769 5770 5771 5772 5773 5775 5776 5776 5778 5779 5782 5782 5782 5782 5783 5784 5785 5787 5788 5789 5790 5791 5791 5792 5793 5793 5793 5793 5793 5794 5795 5796 5796 5797 5797 5798 5798 5798 5798 5797 5796 5796 5796 5796 5796 5796 5796 5796 5796 5796 5797 5797 5797 5797 5797 5797 5797 5797 5797 5797 5797 5797 5797 5797 5797 5797 5798 5798 5798 5798 5798 5798 5798 5798 5798 5798 5797 5797 5797 5797 5796 5796
5764 5765 5766 5767 5767 5769 5770 5770 5772 5773 5774 5775 5776 5778 5779 5779 5780 5781 5781 5783 5784 5785 5786 5787 5788 5789 5789 5790 5791 5791 5791 5791 5792 5793 5793 5794 5795 5795 5796 5796 5796 5795 5795 5794 5794 5794 5794 5794 5794 5794 5793 5793 5794 5794 5794 5794 5794 5794 5794 5795 5795 5795 5795 5795 5795 5795 5795 5795 5795 5795 5795 5795 5795 5795 5795 5795 5795 5795 5795 5795 5794 5794 5794 5793 5793
5761 5762 5763 5764 5765 5766 5767 5768 5769 5770 5771 5772 5773 5773 5775 5776 5777 5778 5778 5779 5781 5782 5783 5784 5785 5786 5786 5787 5788 5788 5789 5789 5790 5790 5791 5791 5792 5793 5793 5793 5793 5793 5792 5792 5792 5792 5791 5791 5791 5791 5791 5791 5791 5791 5791 5791 5792 5792 5792 5792 5792 5792 5793 5793 5793 5793 5793 5793 5793 5793 5793 5793 5792 5792 5792 5792 5792 5792 5792 5791 5791 5791 5790 5790 5790
5759 5759 5760 5761 5762 5763 5764 5765 5765 5766 5767 5769 5769 5770 5772 5773 5774 5774 5775 5776 5778 5779 5780 5781 5782 5783 5784 5784 5784 5785 5786 5786 5786 5787 5787 5788 5789 5790 5791 5791 5791 5790 5790 5790 5790 5789 5789 5789 5789 5789 5789 5789 5788 5788 5789 5789 5789 5789 5789 5790 5790 5790 5790 5790 5791 5791 5790 5790 5790 5790 5790 5789 5789 5789 5789 5789 5789 5788 5788 5788 5788 5787 5787 5787 5786
5755 5756 5757 5758 5758 5759 5761 5761 5762 5762 5764 5766 5766 5767 5769 5770 5770 5771 5772 5773 5774 5775 5776 5778 5779 5781 5782 5781 5779 5780 5782 5783 5783 5784 5784 5785 5786 5787 5788 5788 5788 5788 5787 5787 5787 5787 5787 5786 5786 5786 5786 5786 5786 5786 5786 5786 5786 5787 5787 5787 5787 5787 5788 5788 5788 5788 5788 5787 5787 5787 5787 5786 5786 5786 5786 5786 5785 5785 5785 5784 5784 5784 5783 5783 5782
5751 5753 5754 5755 5755 5756 5757 5758 5759 5759 5761 5762 5764 5765 5766 5766 5766 5767 5768 5769 5771 5772 5773 5775 5776 5777 5779 5779 5777 5777 5778 5779 5780 5781 5781 5782 5783 5784 5785 5785 5785 5785 5785 5785 5785 5785 5784 5784 5784 5784 5784 5783 5783 5783 5783 5783 5783 5784 5784 5784 5785 5785 5785 5785 5785 5785 5784 5784 5784 5784 5783 5783 5783 5783 5782 5782 5782 5781 5781 5781 5780 5780 5779 5778 5777
5747 5748 5750 5751 5752 5753 5754 5755 5756 5756 5758 5759 5761 5762 5763 5763 5763 5763 5765 5766 5767 5769 5769 5771 5772 5773 5774 5775 5775 5774 5774 5775 5776 5777 5778 5778 5779 5780 5782 5782 5782 5782 5782 5782 5782 5782 5782 5781 5781 5781 5781 5781 5780 5780 5780 5780 5780 5781 5781 5781 5782 5782 5782 5782 5782 5782 5781 5781 5781 5781 5780 5780 5780 5779 5779 5778 5778 5778 5777 5777 5776 5776 5775 5774 5773
5744 5745 5747 5748 5749 5750 5750 5751 5753 5754 5755 5756 5758 5759 5760 5760 5760 5760 5761 5762 5764 5765 5766 5767 5769 5769 5770 5770 5771 5771 5771 5772 5773 5774 5775 5775 5776 5777 5778 5779 5779 5779 5779 5779 5779 5779 5779 5778 5778 5778 5778 5778 5778 5777 5777 5777 5778 5778 5778 5778 5779 5779 5779 5779 5779 5779 5778 5778 5778 5777 5777 5777 5776 5776 5775 5775 5774 5774 5773 5773 5772 5771 5770 5769 5768
5741 5742 5744 5744 5745 5746 5747 5748 5749 5750 5751 5753 5754 5755 5756 5757 5757 5758 5758 5760 5760 5761 5763 5764 5764 5765 5766 5766 5767 5767 5768 5769 5770 5771 5772 5772 5773 5773 5775 5776 5775 5775 5776 5776 5776 5776 5775 5775 5775 5775 5775 5775 5775 5775 5775 5775 5775 5775 5775 5776 5776 5776 5776 5776 5776 5776 5775 5775 5775 5774 5774 5773 5773 5772 5771 5771 5770 5770 5769 5768 5767 5766 5765 5764 5763
5738 5739 5740 5741 5742 5743 5744 5745 5746 5747 5748 5749 5750 5752 5752 5752 5753 5754 5755 5757 5758 5758 5759 5760 5760 5761 5762 5763 5763 5764 5765 5766 5767 5768 5769 5769 5769 5770 5771 5772 5772 5772 5773 5773 5773 5773 5772 5771 5772 5772 5772 5773 5772 5772 5772 5772 5772 5773 5773 5773 5773 5773 5773 5773 5773 5773 5772 5772 5771 5771 5770 5770 5769 5768 5767 5767 5766 5765 5765 5764 5763 5762 5760 5759 5758
5736 5736 5737 5738 5739 5740 5740 5741 5741 5742 5743 5745 5746 5747 5748 5748 5749 5750 5751 5753 5755 5755 5755 5756 5757 5758 5758 5759 5760 5761 5762 5763 5764 5765 5766 5766 5766 5766 5767 5768 5767 5767 5768 5769 5769 5769 5769 5768 5768 5769 5769 5770 5770 5770 5770 5770 5770 5770 5770 5771 5771 5770 5770 5770 5770 5770 5769 5768 5768 5767 5767 5766 5765 5764 5763 5763 5762 5761 5760 5759 5758 5757 5756 5755 5754
5734 5734 5734 5734 5735 5736 5736 5736 5737 5738 5739 5741 5742 5743 5743 5744 5745 5746 5747 5748 5750 5751 5752 5752 5753 5754 5755 5755 5757 5758 5759 5760 5761 5762 5763 5763 5763 5764 5765 5764 5762 5762 5764 5766 5766 5767 5766 5765 5765 5766 5766 5766 5767 5767 5767 5767 5767 5767 5767 5767 5767 5767 5767 5767 5766 5766 5766 5765 5764 5763 5763 5762 5761 5760 5759 5758 5758 5757 5756 5755 5754 5753 5752 5750 5749
5731 5731 5731 5731 5731 5732 5732 5732 5734 5735 5735 5736 5737 5738 5739 5740 5741 5742 5743 5744 5746 5747 5748 5749 5749 5750 5751 5752 5754 5756 5756 5756 5758 5759 5760 5760 5760 5761 5762 5761 5758 5759 5761 5762 5763 5764 5763 5763 5763 5763 5763 5763 5764 5764 5764 5764 5764 5764 5764 5764 5764 5764 5763 5763 5763 5763 5762 5761 5760 5759 5759 5758 5757 5756 5755 5754 5754 5753 5752 5751 5749 5748 5747 5746 5745
5729 5729 5728 5728 5728 5728 5728 5728 5730 5731 5731 5731 5732 5734 5735 5736 5737 5738 5739 5740 5742 5743 5744 5745 5746 5746 5747 5749 5750 5752 5752 5752 5754 5754 5755 5756 5757 5757 5758 5757 5757 5757 5758 5759 5760 5761 5761 5760 5760 5760 5760 5760 5761 5761 5761 5761 5761 5761 5761 5761 5761 5760 5759 5759 5760 5759 5757 5756 5756 5756 5756 5755 5754 5752 5751 5750 5750 5749 5748 5746 5745 5744 5743 5741 5740
5726 5726 5726 5726 5725 5724 5724 5725 5725 5725 5727 5728 5729 5730 5732 5732 5733 5734 5735 5736 5737 5738 5740 5741 5741 5742 5743 5744 5745 5747 5747 5748 5749 5750 5751 5752 5753 5753 5754 5754 5754 5754 5754 5756 5757 5759 5759 5757 5757 5757 5757 5757 5758 5758 5757 5758 5758 5758 5758 5757 5757 5756 5756 5755 5756 5757 5754 5752 5752 5752 5752 5751 5750 5748 5746 5746 5746 5745 5743 5742 5741 5739 5738 5737 5735
5724 5723 5723 5723 5722 5721 5721 5722 5722 5721 5722 5723 5725 5726 5727 5727 5728 5729 5731 5732 5733 5734 5735 5736 5736 5737 5738 5739 5740 5742 5742 5743 5744 5745 5747 5748 5749 5750 5750 5750 5751 5751 5751 5752 5753 5755 5755 5754 5753 5754 5754 5754 5755 5755 5754 5754 5754 5754 5754 5753 5753 5752 5752 5751 5752 5753 5751 5749 5749 5748 5747 5746 5745 5744 5741 5740 5740 5740 5739 5737 5736 5735 5733 5731 5730
5721 5720 5720 5719 5719 5719 5718 5717 5717 5717 5718 5719 5720 5721 5722 5722 5723 5725 5726 5727 5728 5729 5730 5731 5732 5733 5734 5735 5736 5737 5738 5739 5740 5741 5742 5743 5744 5746 5746 5747 5747 5747 5747 5747 5748 5750 5751 5750 5750 5750 5750 5750 5751 5751 5751 5750 5750 5750 5749 5749 5748 5748 5747 5747 5747 5747 5747 5746 5745 5744 5742 5741 5740 5739 5737 5735 5734 5734 5734 5731 5730 5729 5728 5726 5724
5717 5717 5716 5716 5715 5715 5715 5714 5713 5713 5714 5715 5715 5716 5717 5717 5718 5720 5721 5723 5723 5725 5726 5727 5727 5728 5729 5731 5732 5733 5733 5734 5735 5737 5738 5739 5740 5742 5743 5743 5745 5745 5743 5743 5744 5745 5745 5745 5745 5746 5746 5746 5746 5746 5746 5746 5746 5745 5745 5745 5744 5744 5743 5743 5742 5742 5742 5741 5740 5738 5737 5736 5734 5734 5732 5730 5728 5728 5729 5727 5724 5723 5722 5720 5718
5714 5713 5713 5712 5712 5711 5711 5711 5711 5710 5710 5711 5712 5713 5712 5713 5715 5715 5716 5718 5719 5720 5721 5722 5723 5724 5725 5727 5728 5729 5729 5730 5731 5732 5734 5735 5736 5738 5739 5740 5743 5742 5739 5739 5740 5740 5740 5740 5741 5741 5741 5742 5742 5742 5742 5741 5741 5741 5740 5740 5740 5740 5739 5738 5737 5736 5737 5737 5735 5733 5732 5731 5730 5729 5727 5725 5723 5722 5723 5723 5720 5717 5716 5714 5713
5710 5710 5709 5708 5708 5707 5706 5706 5707 5707 5707 5707 5708 5709 5709 5710 5711 5710 5711 5713 5714 5715 5716 5717 5718 5719 5721 5722 5724 5724 5725 5726 5727 5728 5730 5731 5732 5733 5734 5736 5738 5737 5736 5736 5737 5736 5736 5736 5736 5737 5737 5737 5737 5737 5737 5737 5736 5736 5735 5735 5735 5735 5735 5734 5732 5730 5731 5732 5731 5728 5727 5725 5725 5725 5722 5720 5719 5717 5715 5715 5714 5712 5710 5709 5708
5707 5706 5706 5705 5704 5703 5703 5702 5702 5703 5703 5704 5704 5704 5704 5705 5705 5704 5705 5707 5709 5710 5711 5712 5713 5715 5716 5717 5719 5720 5721 5721 5722 5724 5725 5726 5727 5729 5729 5730 5732 5732 5732 5733 5733 5732 5733 5733 5732 5732 5733 5733 5733 5733 5732 5732 5731 5731 5731 5731 5731 5730 5730 5729 5728 5725 5725 5727 5726 5723 5722 5721 5720 5720 5717 5715 5713 5712 5710 5709 5708 5707 5705 5703 5701
5703 5703 5702 5702 5701 5700 5699 5699 5699 5699 5699 5700 5700 5699 5699 5699 5698 5699 5700 5702 5703 5705 5706 5707 5708 5710 5712 5713 5714 5715 5715 5716 5718 5720 5721 5722 5723 5723 5724 5725 5726 5727 5728 5729 5729 5728 5729 5730 5729 5728 5728 5728 5728 5727 5727 5727 5727 5727 5726 5726 5726 5725 5725 5724 5723 5721 5720 5721 5720 5717 5716 5716 5715 5714 5712 5709 5707 5706 5705 5705 5703 5702 5701 5698 5695